(2017 YH) |
Classification: Atira [NEO] SPK-ID: 3766080 |
[ hide orbit diagram ]
For accurate long-term ephemerides, please instead use our Horizons system.This orbit viewer was implemented using two-body methods, and hence should not be used for determining accurate long-term trajectories (over several years or decades) or planetary encounter circumstances.
Orbital Elements at Epoch 2459200.5 (2020-Dec-17.0) TDB
Reference: JPL 15 (heliocentric ecliptic J2000)
Element | Value | Uncertainty (1-sigma) | Units |
e | .482549147873138 | 2.3866e-07 | |
a | .634354773077173 | 2.5852e-08 | au |
q | .3282474178795254 | 1.5181e-07 | au |
i | 19.83883365418268 | 0.0001121 | deg |
node | 134.2107937979153 | 0.0002489 | deg |
peri | 147.4845004214251 | 0.000247 | deg |
M | 160.2172374010097 | 0.00019171 | deg |
tp | 2459118.369686029195 (2020-Sep-25.86968603) | 9.9429e-05 | TDB |
period | 184.5426466534698 0.51 | 1.1281e-05 3.089e-08 | d yr |
n | 1.950768597548079 | 1.1925e-07 | deg/d |
Q | .9404621282748206 | 3.8326e-08 | au |
|
| | Orbit Determination Parameters
Additional Information
|
[ show covariance matrix ]
[ show close-approach data ]
|